Location: Marcé
(47.5801°N, 0.3280°W)
Time: 19:41:15
(UTC+01:00)

Explorer 11/Cluster Stage 4 - Pass Details

Date: 30 November 2021
Orbit: 467 x 1255 km, 28.8° (Epoch: 21 January)

Event Time Altitude Azimuth Distance (km) Brightness Sun altitude
Exits shadow 05:11:50 15° 186° (S) 2,784 9.3 -32.2°
Maximum altitude 05:14:01 17° 167° (SSE) 2,705 9.4 -31.8°
Drops below altitude 10° 05:18:44 10° 132° (SE) 3,223 10.2 -31.0°
Sets 05:22:55 0° 114° (ESE) 4,183 11.2 -30.3°
